Hourly Data Report for May 25, 2022

CHARLOTTETOWN A
PRINCE EDWARD ISLAND
Current Station Operator: NAVCAN

46°17'21.000" N
63°07'09.000" W
50.90 m
8300301
71706
YYG

Download Data

Hourly Data (May 2022)
Hourly Data Report for May 25, 2022
TIME
LST
Temp Definition
°C
Dew Point Definition
°C
Rel Hum Definition
%
Precip. Amount Definition
mm

Wind Dir Definition
10's deg

Wind Spd Definition
km/h
Visibility Definition
km
Stn Press Definition
kPa
Hmdx Definition


Wind Chill Definition


Weather Definition


00:00 5.5 3.2 85   18 5 24.1 102.25     LegendNANA
01:00 4.5 3.3 92   27 3 24.1 102.24     LegendNANA
02:00 3.7 2.9 95   4 4 24.1 102.21     Mostly Cloudy
03:00 3.2 2.7 97   31 3 24.1 102.20     LegendNANA
04:00 2.0 1.7 98   27 4 24.1 102.21     LegendNANA
05:00 3.1 2.9 98   26 5 24.1 102.23     Clear
06:00 6.4 5.0 90   19 3 24.1 102.26     LegendNANA
07:00 9.6 5.4 75   23 7 24.1 102.30     LegendNANA
08:00 11.6 1.3 49   17 4 24.1 102.30     Clear
09:00 13.2 2.7 49   22 12 24.1 102.30     LegendNANA
10:00 14.0 6.0 58   15 10 24.1 102.26     LegendNANA
11:00 14.7 5.3 53   21 6 24.1 102.22     Clear
12:00 16.1 3.6 43   19 14 24.1 102.18     LegendNANA
13:00 16.3 1.3 36   19 14 24.1 102.12     LegendNANA
14:00 17.5 -0.9 28   17 17 24.1 102.06     Clear
15:00 17.8 -1.9 26   17 17 24.1 102.00     LegendNANA
16:00 18.0 -1.6 26   16 14 24.1 101.94     LegendNANA
17:00 18.1 -1.6 26   17 13 24.1 101.87     Mostly Cloudy
18:00 16.9 -4.3 23   16 17 24.1 101.87     LegendNANA
19:00 14.6 -1.1 34   17 17 24.1 101.85     LegendNANA
20:00 12.8 1.8 47   18 15 24.1 101.82     Mostly Cloudy
21:00 11.5 1.2 49   18 13 24.1 101.84     LegendNANA
22:00 11.6 3.4 57   20 11 24.1 101.81     LegendNANA
23:00 12.2 1.9 49   23 18 24.1 101.79     Mainly Clear

Notes on Data Quality.

Legend

  • E = Estimated
  • M = Missing
  • NA = Not Available*
  • [empty] = Indicates an unobserved value
Date modified: